Starlink 3732

operational
NORAD ID: 52126 Int'l Des: 2022-029 Owner: SPXS Country: US Constellation: starlink
LEOCIRCULAR

关于 Starlink 3732

正在加载描述...

实时位置

正在加载3D地球...

即将过境

高度历史

Altitude vs Time

uPlot chart will show altitude changes over time

两行轨道根数

1 52126U 22029AQ 25261.00934053 .00000237 00000-0 32970-4 0 9998
2 52126 53.2165 124.3119 0001419 89.9037 270.2118 15.08841011194859
Epoch: Sep 18, 2025 • Age: 12 hours

当前状态

高度 556.6 km
速度 7.58 km/s
星下点 -46.86°S, 170.33°E
发射日期 Mar 19, 2022
运行时间 3.5 years
类型 internet

技术详情

分类 Payload
质量 297.00 kg
干质量 275.00 kg
总质量 297.00 kg
长度 0.20 m
直径 2.80 m
跨度 9.00 m
形状 Box + pan
制造商 SPXS
平台类型 Starlink
阶段状态 In Orbit
所有者/国家 SPXS/US

大型星座

Loading constellations...